| time (UTC) | temp F | wind direction | speed MPH | gust MPH | rain 1hr in | rain 24hr in | rain mn in | humidity % | barometer mb |
| 20260503201327 | 51 | 320 | 2.0 | 4.0 | 0.00 | 0.00 | 0.00 | 38 | 1007.6 |
| 20260503200825 | 51 | 181 | 0.0 | 4.0 | 0.00 | 0.00 | 0.00 | 39 | 1007.4 |
| 20260503200321 | 50 | 116 | 2.0 | 3.0 | 0.00 | 0.00 | 0.00 | 40 | 1007.5 |
| 20260503195819 | 50 | 134 | 2.0 | 6.0 | 0.00 | 0.00 | 0.00 | 38 | 1007.4 |
| 20260503195315 | 51 | 211 | 1.0 | 4.0 | 0.00 | 0.00 | 0.00 | 39 | 1007.3 |
| 20260503194813 | 50 | 280 | 1.0 | 3.0 | 0.00 | 0.00 | 0.00 | 38 | 1007.4 |
| 20260503194308 | 50 | 230 | 1.0 | 3.0 | 0.00 | 0.00 | 0.00 | 41 | 1007.6 |
| 20260503193804 | 51 | 233 | 2.0 | 4.0 | 0.00 | 0.00 | 0.00 | 40 | 1007.7 |
| 20260503193300 | 51 | 275 | 2.0 | 3.0 | 0.00 | 0.00 | 0.00 | 35 | 1007.8 |
| 20260503192756 | 51 | 166 | 2.0 | 8.0 | 0.00 | 0.00 | 0.00 | 35 | 1007.7 |
| 20260503192252 | 50 | 292 | 2.0 | 6.0 | 0.00 | 0.00 | 0.00 | 37 | 1007.8 |
| 20260503191748 | 50 | 323 | 3.0 | 4.0 | 0.00 | 0.00 | 0.00 | 37 | 1007.9 |
| 20260503191246 | 50 | 304 | 2.0 | 7.0 | 0.00 | 0.00 | 0.00 | 37 | 1007.9 |
| 20260503190742 | 50 | 317 | 1.0 | 4.0 | 0.00 | 0.00 | 0.00 | 41 | 1008.1 |
| 20260503190239 | 51 | 79 | 4.0 | 7.0 | 0.00 | 0.00 | 0.00 | 40 | 1008.0 |
| 20260503185737 | 50 | 212 | 2.0 | 7.0 | 0.00 | 0.00 | 0.00 | 38 | 1008.3 |
| 20260503185232 | 51 | 235 | 1.0 | 2.0 | 0.00 | 0.00 | 0.00 | 36 | 1008.1 |
| 20260503184727 | 50 | 255 | 2.0 | 4.0 | 0.00 | 0.00 | 0.00 | 37 | 1007.9 |
| 20260503184223 | 50 | 110 | 4.0 | 4.0 | 0.00 | 0.00 | 0.00 | 38 | 1008.3 |
| 20260503183720 | 49 | 102 | 2.0 | 3.0 | 0.00 | 0.00 | 0.00 | 38 | 1008.1 |
| 20260503183217 | 50 | 242 | 1.0 | 8.0 | 0.00 | 0.00 | 0.00 | 38 | 1008.3 |
| 20260503182716 | 49 | 258 | 2.0 | 6.0 | 0.00 | 0.00 | 0.00 | 38 | 1008.3 |
| 20260503182214 | 50 | 220 | 1.0 | 4.0 | 0.00 | 0.00 | 0.00 | 36 | 1008.3 |
| 20260503181710 | 50 | 160 | 1.0 | 2.0 | 0.00 | 0.00 | 0.00 | 39 | 1008.2 |
| 20260503181207 | 50 | 291 | 1.0 | 7.0 | 0.00 | 0.00 | 0.00 | 38 | 1008.2 |
| 20260503180703 | 49 | 128 | 3.0 | 10.0 | 0.00 | 0.00 | 0.00 | 38 | 1008.4 |
| 20260503180202 | 49 | 265 | 1.0 | 3.0 | 0.00 | 0.00 | 0.00 | 39 | 1008.3 |
| 20260503175658 | 49 | 131 | 3.0 | 7.0 | 0.00 | 0.00 | 0.00 | 36 | 1008.6 |
| 20260503175156 | 49 | 318 | 1.0 | 4.0 | 0.00 | 0.00 | 0.00 | 39 | 1008.3 |
| 20260503174652 | 49 | 227 | 1.0 | 8.0 | 0.00 | 0.00 | 0.00 | 39 | 1008.3 |
| 20260503174149 | 49 | 202 | 1.0 | 4.0 | 0.00 | 0.00 | 0.00 | 38 | 1008.2 |
| 20260503173644 | 48 | 283 | 5.0 | 9.0 | 0.00 | 0.00 | 0.00 | 38 | 1008.7 |
| 20260503173141 | 46 | 338 | 6.0 | 10.0 | 0.00 | 0.00 | 0.00 | 39 | 1008.3 |
| 20260503172638 | 48 | 332 | 5.0 | 7.0 | 0.00 | 0.00 | 0.00 | 37 | 1008.4 |
| 20260503172135 | 48 | 309 | 3.0 | 6.0 | 0.00 | 0.00 | 0.00 | 37 | 1008.4 |
| 20260503171631 | 47 | 336 | 2.0 | 7.0 | 0.00 | 0.00 | 0.00 | 39 | 1008.6 |
| 20260503171129 | 47 | 302 | 4.0 | 4.0 | 0.00 | 0.00 | 0.00 | 41 | 1008.6 |
| 20260503170626 | 48 | 220 | 1.0 | 7.0 | 0.00 | 0.00 | 0.00 | 40 | 1008.8 |
| 20260503170122 | 48 | 293 | 3.0 | 7.0 | 0.00 | 0.00 | 0.00 | 37 | 1008.4 |
| 20260503150514 | 42 | 222 | 0.0 | 9.0 | 0.00 | 0.00 | 0.00 | 48 | 1009.3 |
| 20260503131356 | 40 | 221 | 1.0 | 6.0 | 0.00 | 0.00 | 0.00 | 68 | 1009.4 |
| 20260503130853 | 40 | 224 | 3.0 | 4.0 | 0.00 | 0.00 | 0.00 | 68 | 1009.2 |
| 20260503130350 | 38 | 294 | 2.0 | 3.0 | 0.00 | 0.00 | 0.00 | 70 | 1009.5 |
| 20260503110744 | 33 | 233 | 0.0 | 2.0 | 0.00 | 0.00 | 0.00 | 88 | 1009.1 |
| 20260503110241 | 33 | 238 | 0.0 | 1.0 | 0.00 | 0.00 | 0.00 | 89 | 1008.9 |
| 20260503100208 | 32 | 241 | 0.0 | 0.0 | 0.00 | 0.00 | 0.00 | 90 | 1008.4 |
| 20260503090132 | 31 | 237 | 0.0 | 1.0 | 0.00 | 0.00 | 0.00 | 91 | 1008.3 |
| 20260503081607 | 31 | 230 | 0.0 | 0.0 | 0.00 | 0.00 | 0.00 | 91 | 1008.7 |
| 20260503081105 | 31 | 227 | 0.0 | 0.0 | 0.00 | 0.00 | 0.00 | 91 | 1008.7 |
| 20260503080600 | 31 | 235 | 0.0 | 0.0 | 0.00 | 0.00 | 0.00 | 91 | 1008.6 |
| 20260503072540 | 31 | 228 | 0.0 | 0.0 | 0.00 | 0.00 | 0.00 | 90 | 1008.6 |
| 20260503072037 | 31 | 259 | 0.0 | 0.0 | 0.00 | 0.00 | 0.00 | 90 | 1008.9 |
| 20260503071533 | 31 | 227 | 0.0 | 0.0 | 0.00 | 0.00 | 0.00 | 89 | 1008.7 |
| 20260503071030 | 31 | 231 | 0.0 | 0.0 | 0.00 | 0.00 | 0.00 | 89 | 1008.8 |
| 20260503070526 | 31 | 231 | 0.0 | 0.0 | 0.00 | 0.00 | 0.00 | 88 | 1008.9 |
| 20260503054940 | 32 | 232 | 0.0 | 1.0 | 0.00 | 0.00 | 0.00 | 85 | 1009.7 |
| 20260503054436 | 32 | 230 | 0.0 | 0.0 | 0.00 | 0.00 | 0.00 | 85 | 1009.7 |
| 20260503053934 | 33 | 269 | 0.0 | 1.0 | 0.00 | 0.00 | 0.00 | 84 | 1009.6 |
| 20260503053432 | 33 | 253 | 0.0 | 1.0 | 0.00 | 0.00 | 0.00 | 84 | 1009.6 |
| 20260503052928 | 33 | 271 | 0.0 | 1.0 | 0.00 | 0.00 | 0.00 | 85 | 1009.6 |
| 20260503052426 | 33 | 241 | 0.0 | 1.0 | 0.00 | 0.00 | 0.00 | 82 | 1009.8 |
| 20260503051921 | 33 | 273 | 2.0 | 3.0 | 0.00 | 0.00 | 0.00 | 82 | 1009.7 |
| 20260503051418 | 33 | 230 | 0.0 | 0.0 | 0.00 | 0.00 | 0.00 | 83 | 1009.6 |
| 20260503050915 | 33 | 228 | 0.0 | 0.0 | 0.00 | 0.00 | 0.00 | 82 | 1010.0 |
| 20260503050411 | 34 | 232 | 0.0 | 1.0 | 0.00 | 0.00 | 0.00 | 79 | 1010.0 |
| 20260503045909 | 34 | 262 | 1.0 | 2.0 | 0.00 | 0.00 | 0.00 | 79 | 1009.9 |
| 20260503045406 | 34 | 275 | 3.0 | 4.0 | 0.00 | 0.00 | 0.00 | 79 | 1010.0 |
| 20260503044903 | 34 | 293 | 1.0 | 2.0 | 0.00 | 0.00 | 0.00 | 79 | 1010.1 |
| 20260503044359 | 34 | 234 | 0.0 | 0.0 | 0.00 | 0.00 | 0.00 | 80 | 1010.0 |
| 20260503043856 | 34 | 238 | 0.0 | 3.0 | 0.00 | 0.00 | 0.00 | 79 | 1010.1 |
| 20260503043353 | 34 | 250 | 0.0 | 0.0 | 0.00 | 0.00 | 0.00 | 81 | 1010.2 |
| 20260503042849 | 35 | 224 | 0.0 | 1.0 | 0.00 | 0.00 | 0.00 | 80 | 1010.2 |
| 20260503042346 | 35 | 247 | 0.0 | 3.0 | 0.00 | 0.00 | 0.00 | 79 | 1010.4 |
| 20260503041842 | 35 | 254 | 0.0 | 0.0 | 0.00 | 0.00 | 0.00 | 79 | 1010.2 |
| 20260503041340 | 35 | 233 | 1.0 | 1.0 | 0.00 | 0.00 | 0.00 | 78 | 1010.5 |
| 20260503040837 | 35 | 280 | 1.0 | 1.0 | 0.00 | 0.00 | 0.00 | 77 | 1010.5 |
| 20260503040335 | 35 | 238 | 0.0 | 1.0 | 0.00 | 0.00 | 0.00 | 77 | 1010.5 |
| 20260503035831 | 35 | 227 | 0.0 | 2.0 | 0.00 | 0.00 | 0.00 | 76 | 1010.6 |
| 20260503035328 | 36 | 232 | 0.0 | 1.0 | 0.00 | 0.00 | 0.00 | 75 | 1010.4 |
| 20260503034826 | 36 | 234 | 0.0 | 0.0 | 0.00 | 0.00 | 0.00 | 74 | 1010.5 |
| 20260503034323 | 36 | 246 | 0.0 | 3.0 | 0.00 | 0.00 | 0.00 | 75 | 1010.5 |
| 20260503033820 | 36 | 210 | 0.0 | 1.0 | 0.00 | 0.00 | 0.00 | 73 | 1010.6 |
| 20260503033318 | 36 | 228 | 0.0 | 2.0 | 0.00 | 0.00 | 0.00 | 72 | 1010.5 |
| 20260503032815 | 37 | 232 | 0.0 | 0.0 | 0.00 | 0.00 | 0.00 | 72 | 1010.5 |
| 20260503032314 | 37 | 216 | 0.0 | 2.0 | 0.00 | 0.00 | 0.00 | 74 | 1010.4 |
| 20260503031811 | 37 | 224 | 0.0 | 0.0 | 0.00 | 0.00 | 0.00 | 71 | 1010.4 |
| 20260503031309 | 37 | 254 | 1.0 | 3.0 | 0.00 | 0.00 | 0.00 | 70 | 1010.6 |
| 20260503030805 | 37 | 226 | 0.0 | 3.0 | 0.00 | 0.00 | 0.00 | 70 | 1010.6 |
| 20260503030302 | 37 | 238 | 0.0 | 0.0 | 0.00 | 0.00 | 0.00 | 70 | 1010.6 |
| 20260503025758 | 37 | 244 | 0.0 | 1.0 | 0.00 | 0.00 | 0.00 | 70 | 1010.7 |
| 20260503025256 | 37 | 216 | 2.0 | 2.0 | 0.00 | 0.00 | 0.00 | 69 | 1010.8 |
| 20260503024752 | 37 | 268 | 0.0 | 0.0 | 0.00 | 0.00 | 0.00 | 69 | 1010.9 |
| 20260503024249 | 37 | 235 | 0.0 | 2.0 | 0.00 | 0.00 | 0.00 | 69 | 1010.9 |
| 20260503023746 | 38 | 239 | 0.0 | 0.0 | 0.00 | 0.00 | 0.00 | 72 | 1010.7 |
| 20260503023243 | 38 | 277 | 2.0 | 3.0 | 0.00 | 0.00 | 0.00 | 68 | 1010.9 |
| 20260503022739 | 38 | 238 | 0.0 | 0.0 | 0.00 | 0.00 | 0.00 | 71 | 1010.8 |
| 20260503022234 | 38 | 237 | 0.0 | 0.0 | 0.00 | 0.00 | 0.00 | 70 | 1011.0 |
| 20260503021731 | 38 | 246 | 0.0 | 0.0 | 0.00 | 0.00 | 0.00 | 70 | 1010.9 |
| 20260503021227 | 38 | 226 | 0.0 | 0.0 | 0.00 | 0.00 | 0.00 | 73 | 1010.9 |
| 20260503020725 | 38 | 225 | 0.0 | 0.0 | 0.00 | 0.00 | 0.00 | 68 | 1010.8 |
| 20260503020222 | 38 | 225 | 0.0 | 3.0 | 0.00 | 0.00 | 0.00 | 69 | 1011.0 |
| 20260503015719 | 38 | 234 | 0.0 | 0.0 | 0.00 | 0.00 | 0.00 | 70 | 1010.8 |
| 20260503015216 | 38 | 226 | 0.0 | 0.0 | 0.00 | 0.00 | 0.00 | 68 | 1010.8 |
| 20260503014711 | 39 | 230 | 0.0 | 2.0 | 0.00 | 0.00 | 0.00 | 69 | 1010.7 |
| 20260503014210 | 39 | 215 | 0.0 | 2.0 | 0.00 | 0.00 | 0.00 | 66 | 1010.9 |
| 20260503013706 | 39 | 262 | 0.0 | 1.0 | 0.00 | 0.00 | 0.00 | 65 | 1010.8 |
| 20260503013204 | 38 | 231 | 0.0 | 2.0 | 0.00 | 0.00 | 0.00 | 66 | 1011.0 |
| 20260503012702 | 38 | 241 | 0.0 | 1.0 | 0.00 | 0.00 | 0.00 | 67 | 1010.8 |
| 20260503012158 | 38 | 250 | 1.0 | 2.0 | 0.00 | 0.00 | 0.00 | 66 | 1010.9 |
| 20260503011654 | 38 | 227 | 0.0 | 0.0 | 0.00 | 0.00 | 0.00 | 67 | 1010.6 |
| 20260503011151 | 38 | 227 | 0.0 | 0.0 | 0.00 | 0.00 | 0.00 | 67 | 1011.0 |
| 20260503010647 | 39 | 227 | 0.0 | 0.0 | 0.00 | 0.00 | 0.00 | 66 | 1010.7 |
| 20260503010145 | 39 | 209 | 0.0 | 2.0 | 0.00 | 0.00 | 0.00 | 65 | 1010.8 |
| 20260503005642 | 39 | 255 | 0.0 | 0.0 | 0.00 | 0.00 | 0.00 | 65 | 1010.8 |
| 20260503005139 | 39 | 224 | 0.0 | 3.0 | 0.00 | 0.00 | 0.00 | 65 | 1010.7 |
| 20260503004636 | 39 | 239 | 0.0 | 0.0 | 0.00 | 0.00 | 0.00 | 65 | 1010.6 |
| 20260503004134 | 39 | 252 | 2.0 | 6.0 | 0.00 | 0.00 | 0.00 | 62 | 1010.5 |
| 20260503003631 | 39 | 313 | 1.0 | 2.0 | 0.00 | 0.00 | 0.00 | 63 | 1010.5 |
| 20260503003128 | 39 | 256 | 0.0 | 0.0 | 0.00 | 0.00 | 0.00 | 64 | 1010.6 |
| 20260503002625 | 40 | 233 | 0.0 | 0.0 | 0.00 | 0.00 | 0.00 | 66 | 1010.5 |
| 20260503002122 | 40 | 239 | 0.0 | 1.0 | 0.00 | 0.00 | 0.00 | 63 | 1010.5 |
| 20260503001618 | 40 | 237 | 0.0 | 3.0 | 0.00 | 0.00 | 0.00 | 62 | 1010.5 |
| 20260503001115 | 40 | 267 | 0.0 | 3.0 | 0.00 | 0.00 | 0.00 | 61 | 1010.4 |
| 20260503000612 | 40 | 222 | 0.0 | 0.0 | 0.00 | 0.00 | 0.00 | 63 | 1010.5 |
| 20260503000110 | 40 | 261 | 0.0 | 3.0 | 0.00 | 0.00 | 0.00 | 63 | 1010.5 |
| 20260502235606 | 41 | 246 | 0.0 | 2.0 | 0.00 | 0.00 | 0.00 | 62 | 1010.4 |
| 20260502235104 | 41 | 230 | 0.0 | 3.0 | 0.00 | 0.00 | 0.00 | 61 | 1010.4 |
| 20260502234559 | 41 | 222 | 0.0 | 1.0 | 0.00 | 0.00 | 0.00 | 62 | 1010.5 |
| 20260502234057 | 41 | 231 | 0.0 | 1.0 | 0.00 | 0.00 | 0.00 | 62 | 1010.5 |
| 20260502233557 | 41 | 278 | 2.0 | 4.0 | 0.00 | 0.00 | 0.00 | 60 | 1010.4 |
| 20260502233054 | 41 | 234 | 0.0 | 2.0 | 0.00 | 0.00 | 0.00 | 58 | 1010.1 |
| 20260502232550 | 41 | 243 | 0.0 | 6.0 | 0.00 | 0.00 | 0.00 | 58 | 1010.2 |
| 20260502232048 | 42 | 241 | 0.0 | 0.0 | 0.00 | 0.00 | 0.00 | 59 | 1010.2 |
| 20260502231544 | 42 | 221 | 1.0 | 1.0 | 0.00 | 0.00 | 0.00 | 58 | 1010.1 |
| 20260502231042 | 42 | 231 | 0.0 | 1.0 | 0.00 | 0.00 | 0.00 | 58 | 1010.1 |
| 20260502230541 | 42 | 222 | 4.0 | 4.0 | 0.00 | 0.00 | 0.00 | 54 | 1010.0 |
| 20260502230039 | 43 | 227 | 1.0 | 2.0 | 0.00 | 0.00 | 0.00 | 54 | 1009.9 |
| 20260502225534 | 43 | 247 | 1.0 | 2.0 | 0.00 | 0.00 | 0.00 | 53 | 1009.9 |
| 20260502225031 | 43 | 217 | 1.0 | 2.0 | 0.00 | 0.00 | 0.00 | 54 | 1010.1 |
| 20260502224527 | 44 | 157 | 1.0 | 2.0 | 0.00 | 0.00 | 0.00 | 53 | 1009.9 |
| 20260502224025 | 44 | 256 | 0.0 | 0.0 | 0.00 | 0.00 | 0.00 | 50 | 1009.9 |
| 20260502223522 | 44 | 89 | 2.0 | 4.0 | 0.00 | 0.00 | 0.00 | 49 | 1010.0 |
| 20260502223020 | 44 | 246 | 0.0 | 0.0 | 0.00 | 0.00 | 0.00 | 51 | 1009.9 |
| 20260502222517 | 44 | 224 | 3.0 | 3.0 | 0.00 | 0.00 | 0.00 | 50 | 1009.9 |
| 20260502222014 | 44 | 195 | 0.0 | 3.0 | 0.00 | 0.00 | 0.00 | 51 | 1009.9 |
| 20260502221509 | 44 | 225 | 0.0 | 3.0 | 0.00 | 0.00 | 0.00 | 54 | 1009.8 |
| 20260502221007 | 44 | 236 | 1.0 | 6.0 | 0.00 | 0.00 | 0.00 | 49 | 1009.8 |
| 20260502220502 | 44 | 246 | 0.0 | 1.0 | 0.00 | 0.00 | 0.00 | 54 | 1009.8 |
| 20260502215959 | 44 | 213 | 1.0 | 1.0 | 0.00 | 0.00 | 0.00 | 51 | 1009.6 |
| 20260502215457 | 44 | 233 | 0.0 | 2.0 | 0.00 | 0.00 | 0.00 | 50 | 1009.7 |
| 20260502214953 | 44 | 265 | 1.0 | 3.0 | 0.00 | 0.00 | 0.00 | 49 | 1009.7 |
| 20260502214450 | 44 | 282 | 3.0 | 3.0 | 0.00 | 0.00 | 0.00 | 49 | 1009.7 |
| 20260502213947 | 44 | 198 | 1.0 | 3.0 | 0.00 | 0.00 | 0.00 | 49 | 1009.8 |
| 20260502213444 | 45 | 177 | 0.0 | 2.0 | 0.00 | 0.00 | 0.00 | 50 | 1009.8 |
| 20260502212943 | 45 | 231 | 0.0 | 2.0 | 0.00 | 0.00 | 0.00 | 50 | 1009.6 |
| 20260502212441 | 44 | 233 | 0.0 | 1.0 | 0.00 | 0.00 | 0.00 | 47 | 1009.6 |
| 20260502211938 | 45 | 222 | 1.0 | 3.0 | 0.00 | 0.00 | 0.00 | 47 | 1009.6 |
| 20260502211434 | 46 | 0 | 0.0 | 2.0 | 0.00 | 0.00 | 0.00 | 51 | 1009.6 |
| 20260502210931 | 46 | 173 | 1.0 | 3.0 | 0.00 | 0.00 | 0.00 | 48 | 1009.5 |
| 20260502210428 | 45 | 292 | 6.0 | 8.0 | 0.00 | 0.00 | 0.00 | 46 | 1009.6 |
| 20260502205925 | 45 | 50 | 1.0 | 2.0 | 0.00 | 0.00 | 0.00 | 52 | 1009.4 |
| 20260502205421 | 45 | 286 | 2.0 | 3.0 | 0.00 | 0.00 | 0.00 | 48 | 1009.6 |
| 20260502204919 | 45 | 46 | 0.0 | 4.0 | 0.00 | 0.00 | 0.00 | 50 | 1009.7 |
| 20260502204415 | 45 | 234 | 0.0 | 3.0 | 0.00 | 0.00 | 0.00 | 49 | 1009.5 |
| 20260502203914 | 46 | 203 | 3.0 | 4.0 | 0.00 | 0.00 | 0.00 | 47 | 1009.5 |
| 20260502203411 | 46 | 279 | 3.0 | 4.0 | 0.00 | 0.00 | 0.00 | 47 | 1009.5 |
| 20260502202906 | 46 | 237 | 1.0 | 3.0 | 0.00 | 0.00 | 0.00 | 49 | 1009.7 |
| 20260502202403 | 46 | 228 | 0.0 | 3.0 | 0.00 | 0.00 | 0.00 | 48 | 1009.8 |
| 20260502201901 | 46 | 247 | 1.0 | 2.0 | 0.00 | 0.00 | 0.00 | 47 | 1009.6 |
| 20260502201357 | 46 | 165 | 0.0 | 1.0 | 0.00 | 0.00 | 0.00 | 49 | 1009.7 |